Wind_Speed
49 48 47 45 44 43 43 43 43 43 42 42 41 40 38 37 37 37 36 35 34 33 33 32 31 31 30 30 29 28 27 26 25 24 23 23 23 23 23 23 23 23 23 23 23 23 22 22 22 21 22 25 26 26 26 25 24 23 21 20 18 16 15 15 16 15 11 10 11 11 10 12 12 12 13 14 14 16 17 18 19 19 19 20 20
49 48 47 46 45 43 42 42 42 43 43 43 42 41 40 39 38 38 38 37 35 35 34 34 33 32 32 32 31 30 29 27 27 26 26 26 25 25 26 25 24 24 25 25 25 24 23 22 22 21 21 23 24 25 24 24 24 23 21 19 17 15 14 14 14 14 12 10 10 11 11 12 12 12 13 16 16 17 17 17 17 17 18 19 20
49 48 47 46 45 42 42 42 42 43 44 44 44 43 41 40 39 39 39 38 37 36 36 35 34 33 33 34 33 32 31 30 29 28 28 28 28 27 27 27 26 26 26 26 26 26 25 24 22 22 22 23 24 24 23 22 22 21 20 18 16 15 14 13 14 14 14 12 11 11 10 11 13 13 15 18 18 19 19 19 18 18 19 19 20
50 48 47 46 45 43 42 42 42 43 44 45 45 44 43 41 40 40 40 39 39 38 37 36 35 35 35 35 35 34 33 32 31 30 29 29 29 29 29 29 28 27 27 27 27 27 26 25 23 22 23 24 24 24 24 22 21 20 20 19 17 15 14 14 14 14 15 15 13 12 12 12 14 16 17 20 20 21 21 21 20 20 20 20 20
51 50 48 47 46 44 43 42 43 44 44 46 46 46 45 43 42 41 41 41 40 39 38 38 37 37 37 37 37 36 36 34 33 32 30 29 29 30 30 30 30 29 28 28 29 29 27 26 25 23 25 26 26 25 24 22 21 20 20 20 18 16 15 15 15 15 16 17 15 14 15 16 17 18 20 21 22 23 23 22 22 22 23 22 20
51 51 50 48 47 46 44 43 43 44 44 45 47 47 47 45 43 42 42 42 41 40 39 39 39 39 39 38 38 38 37 36 35 34 33 31 30 31 31 30 30 30 30 30 30 30 29 27 25 25 26 26 26 26 24 23 22 21 21 20 18 16 16 16 15 16 17 17 17 17 18 19 20 21 22 22 24 24 24 23 22 22 21 22 21
52 51 50 50 49 47 45 44 42 43 44 45 46 48 48 47 46 44 43 42 42 41 40 40 40 40 39 39 38 38 38 38 37 36 35 33 32 31 31 31 30 30 31 31 30 30 29 27 26 25 26 26 25 25 24 22 21 21 21 20 17 16 17 17 16 16 17 18 19 19 20 21 22 23 24 24 25 25 23 22 23 23 21 20 20
52 52 51 50 50 49 46 44 42 42 43 44 46 48 49 49 48 46 45 44 43 42 41 41 40 40 40 39 39 39 39 40 39 38 37 35 33 32 32 32 31 30 31 32 31 30 30 28 27 26 26 26 25 25 23 21 21 21 21 19 17 17 18 18 17 17 18 19 20 21 21 22 23 24 25 26 26 24 22 21 24 25 22 21 21
53 52 52 51 51 49 47 45 43 42 43 45 47 48 49 50 49 48 47 46 45 43 42 41 41 41 40 40 40 40 40 41 40 39 38 35 33 33 33 33 33 32 31 32 32 31 31 29 28 28 27 26 26 25 23 22 21 21 21 19 18 19 20 19 19 19 20 21 21 22 22 24 25 26 27 26 25 24 23 23 25 25 24 24 23
53 53 53 52 51 50 48 46 45 44 45 46 47 48 49 49 50 49 48 47 46 44 43 42 42 42 41 41 41 41 41 41 41 40 37 34 32 32 32 33 35 34 32 32 33 33 31 30 30 30 28 27 26 26 25 23 21 21 20 20 20 21 22 21 20 21 21 22 23 23 24 26 26 27 27 26 24 24 24 25 25 25 25 25 25
55 54 54 53 52 50 49 48 47 47 47 47 47 48 48 49 50 49 48 47 46 45 44 44 43 42 42 42 41 41 41 41 41 39 36 32 30 30 30 32 36 36 33 32 34 33 32 30 30 30 30 27 27 27 26 23 21 21 20 19 20 21 21 21 22 22 23 24 25 25 26 28 28 28 27 26 25 24 24 23 24 25 24 25 25
55 55 54 53 52 51 50 49 48 48 48 48 48 48 48 49 50 50 49 48 46 46 45 44 43 42 42 41 41 41 40 40 40 38 33 28 29 30 30 32 36 37 35 33 33 33 33 32 31 31 30 29 27 27 26 23 22 22 21 20 21 22 21 22 22 23 24 26 26 27 28 29 29 29 28 26 24 23 22 23 23 23 23 24 25
55 55 54 53 52 51 51 50 49 49 49 48 48 48 49 50 51 50 49 47 46 46 45 44 43 43 42 41 41 40 40 39 39 36 31 27 28 30 31 32 35 36 34 33 32 32 32 32 31 31 31 29 27 27 26 25 24 24 23 23 24 24 24 23 22 24 27 27 27 29 29 29 29 29 27 24 23 22 22 23 22 22 23 24 25
56 55 55 54 52 51 51 51 50 49 49 48 48 49 50 51 50 49 48 47 47 47 45 44 43 42 41 41 40 39 39 38 37 34 29 27 27 28 29 31 34 34 33 31 31 32 33 33 31 30 30 29 27 26 26 26 25 25 25 25 25 24 25 24 24 28 30 27 27 29 28 27 28 29 25 21 20 21 21 21 21 22 24 25 27
56 56 56 55 53 51 51 51 50 49 49 49 49 49 50 50 50 49 48 48 47 46 45 44 43 42 41 40 39 38 38 37 36 32 28 25 25 25 27 30 32 33 32 30 30 32 34 34 30 28 29 29 26 25 24 24 24 25 25 25 25 25 25 25 27 30 27 25 27 28 26 27 28 27 24 20 20 21 21 21 22 23 25 27 29
57 56 57 56 54 52 51 50 50 49 49 49 49 49 50 50 49 49 48 47 47 46 45 44 42 41 40 39 38 38 37 36 34 30 27 24 24 25 28 31 33 33 31 30 30 30 32 33 29 26 27 27 25 23 22 21 23 24 24 23 24 25 24 25 29 30 26 26 28 26 25 26 26 24 21 20 20 22 22 22 23 24 26 27 27
57 57 57 57 56 53 50 50 50 50 49 49 49 49 49 49 49 48 48 47 46 45 44 43 42 41 39 38 38 38 37 35 33 29 26 24 24 25 27 30 33 33 30 28 29 29 31 31 28 25 25 26 23 21 20 21 23 24 23 22 23 24 24 25 29 29 26 26 26 25 25 25 24 22 21 21 21 22 22 23 24 24 23 24 25
56 57 58 58 56 54 52 50 50 50 50 49 48 48 47 47 48 48 48 47 45 44 43 42 41 40 38 38 37 37 36 34 32 29 26 25 24 24 27 30 32 31 28 26 27 28 29 29 26 24 24 24 21 19 18 20 23 24 22 20 21 22 23 26 28 27 26 26 26 26 26 24 22 22 22 22 22 23 24 25 24 22 21 22 24
55 56 57 57 57 55 52 51 51 50 50 49 48 47 46 46 47 47 47 46 44 43 42 41 40 39 38 37 36 35 35 33 31 29 27 26 25 23 25 29 31 29 27 25 25 27 28 27 24 23 24 24 22 20 20 23 24 23 21 20 21 21 22 24 25 24 24 26 28 27 24 22 22 23 24 24 24 24 24 24 22 21 22 22 23
53 53 55 56 55 54 53 52 51 51 50 49 48 47 46 46 46 46 45 44 42 41 41 40 39 39 38 37 35 34 33 31 29 28 26 26 24 23 24 27 29 28 25 24 25 27 27 25 23 22 23 24 24 23 23 23 23 22 22 21 21 21 21 22 23 23 25 26 26 24 22 22 23 24 25 25 24 23 22 21 21 21 21 22 24
52 53 55 55 55 54 54 54 53 52 51 50 48 47 46 45 45 45 44 42 41 40 40 39 39 38 37 36 34 32 30 28 26 25 24 22 21 22 24 25 25 23 21 22 25 27 26 25 23 23 23 24 25 25 23 22 22 23 22 22 21 21 20 20 21 23 24 23 22 22 23 23 23 23 23 23 22 21 20 20 20 21 22 25 28
53 54 54 55 55 55 55 55 55 53 52 51 49 47 46 45 44 43 41 40 40 40 39 39 38 37 35 33 31 29 28 26 24 23 22 21 21 22 23 22 20 19 19 21 24 25 25 24 23 23 24 25 26 25 23 23 23 22 20 20 21 21 19 20 21 22 21 21 22 23 23 21 20 20 20 19 19 18 18 18 18 20 24 27 30
54 55 55 55 55 55 55 56 55 54 53 52 50 48 46 45 43 41 40 40 40 40 39 38 37 35 33 31 29 28 27 25 23 21 21 21 22 21 20 17 16 16 18 20 21 22 22 22 22 23 24 24 23 22 22 23 22 19 18 19 19 19 19 20 20 19 20 21 23 20 17 15 15 14 13 13 13 14 15 16 17 20 24 25 25
55 55 55 54 53 54 54 54 55 54 54 52 50 49 47 45 43 41 40 41 40 39 38 37 35 33 31 29 28 26 24 22 21 22 22 21 20 19 17 16 16 16 17 18 17 17 18 19 20 22 21 21 20 19 21 22 18 14 14 16 17 18 19 19 18 18 20 20 17 13 9 9 9 8 9 9 11 13 15 16 18 22 24 22 20
56 55 54 53 52 52 52 52 53 54 54 53 51 49 47 45 43 42 41 40 39 38 37 35 34 32 29 27 26 24 22 22 22 23 23 21 21 20 19 18 19 18 18 18 18 18 18 18 18 18 18 18 17 16 18 18 13 10 12 14 15 16 16 15 15 15 15 12 10 8 7 7 7 8 9 11 13 16 17 19 22 24 23 19 18
49 51 52 52 52 52 52 52 53 53 53 52 51 49 47 45 43 42 40 38 36 36 35 33 32 30 27 26 25 23 22 23 22 21 21 22 23 23 22 22 21 20 20 20 20 20 18 17 16 16 16 16 15 14 13 13 12 12 13 13 13 13 12 11 11 10 9 8 8 7 6 6 8 10 12 14 16 18 19 21 23 23 21 18 18
41 46 49 51 52 54 54 54 54 54 53 52 50 47 45 44 43 41 39 37 35 34 33 33 31 29 27 26 25 24 23 22 20 19 21 22 22 22 22 22 21 20 20 20 19 18 17 16 16 16 15 14 13 12 11 12 13 13 12 10 10 11 10 10 10 10 9 9 8 7 7 8 10 12 13 16 18 19 20 21 22 22 21 19 19
34 40 47 51 52 54 56 56 55 55 53 51 49 46 44 42 41 38 36 35 35 34 33 31 29 27 26 25 25 24 23 21 20 21 21 20 20 20 21 21 21 21 20 20 19 18 18 17 16 16 15 15 13 12 12 13 13 11 9 9 10 11 11 11 11 11 11 10 9 9 10 11 13 14 16 17 18 19 20 20 21 21 20 19 19
31 31 36 44 49 51 53 56 57 56 54 51 47 44 42 38 35 32 31 30 29 27 26 26 25 24 23 23 23 23 21 19 20 21 20 18 18 18 18 19 20 20 20 20 19 19 18 18 17 17 16 15 14 13 13 12 10 9 9 9 10 11 12 13 13 12 12 11 11 12 13 14 16 17 17 17 18 19 19 19 19 20 19 17 18
36 28 22 30 43 48 50 53 54 53 52 50 46 42 37 32 28 27 26 25 23 20 19 20 20 21 22 21 20 17 15 15 17 19 18 17 16 15 15 16 17 18 19 19 19 19 18 18 18 18 16 14 12 12 11 10 9 9 10 10 10 11 13 14 14 14 14 14 15 15 16 17 17 16 16 17 18 18 18 18 18 17 16 16 18
43 36 25 26 38 44 43 43 45 46 46 45 41 38 35 30 26 23 23 22 21 19 17 17 17 18 18 17 16 14 13 13 15 16 15 15 15 15 15 15 16 17 18 18 18 18 18 18 18 16 13 11 11 11 10 9 9 10 11 12 12 13 14 14 14 15 16 16 16 15 15 15 15 15 16 17 18 17 18 18 16 15 15 16 18
42 41 35 30 30 31 32 35 40 42 41 38 36 35 34 32 29 25 23 22 22 21 21 19 18 16 14 13 12 12 13 14 15 14 14 15 16 16 16 16 16 16 17 17 18 18 18 18 15 13 11 12 12 11 10 10 11 12 13 13 13 14 15 16 16 16 16 15 15 14 14 14 15 16 16 17 18 19 19 18 15 14 16 18 19
34 35 33 30 28 29 34 38 39 38 34 32 32 31 31 32 31 29 26 25 23 22 21 20 18 16 14 12 11 10 12 15 16 15 14 14 14 14 15 15 16 17 18 19 19 18 16 14 13 12 13 13 12 11 11 11 12 13 12 11 11 12 14 15 15 15 15 14 14 14 15 15 16 17 17 18 18 18 18 16 15 15 17 19 20
22 23 26 30 33 36 36 35 32 30 29 28 28 28 27 28 29 29 28 27 24 23 21 20 18 16 15 14 13 12 14 16 16 14 13 13 13 13 13 14 15 17 18 19 19 17 15 14 14 15 14 13 12 11 11 11 11 11 10 9 9 10 10 11 12 13 13 14 15 15 15 16 17 17 17 17 17 16 15 14 14 16 18 19 19
22 24 27 30 31 30 28 26 25 24 25 25 25 25 25 25 25 24 24 23 23 24 23 21 19 17 15 15 16 16 17 17 15 13 12 12 13 13 13 14 16 17 18 17 17 16 15 16 17 16 14 13 13 12 12 11 11 11 11 10 9 8 8 9 10 11 12 13 14 15 15 15 15 14 14 14 14 14 14 14 15 17 18 17 17
25 27 26 24 23 22 22 22 22 22 23 24 24 24 23 22 21 20 19 19 21 23 23 21 20 18 17 17 17 18 18 16 15 14 13 12 12 13 13 14 15 16 16 16 16 15 16 17 17 17 16 14 14 13 12 11 12 12 12 12 11 9 9 9 10 11 12 13 13 13 13 13 12 12 12 12 11 12 14 15 16 16 15 15 16
20 22 22 21 21 21 21 20 20 20 22 23 24 24 22 20 19 19 18 19 21 22 21 20 20 19 19 18 18 18 18 17 15 15 14 14 13 13 12 12 14 15 15 15 15 15 16 17 17 17 16 15 14 13 12 11 11 11 11 12 12 11 10 10 11 12 12 12 12 12 12 13 13 12 11 10 12 14 16 16 16 15 14 15 15
16 18 18 18 19 19 20 20 20 20 21 22 23 24 23 22 21 20 19 20 20 20 19 18 18 18 18 19 19 19 19 19 18 16 15 15 15 14 14 13 13 13 13 13 13 14 15 16 17 16 16 15 13 12 11 10 10 11 12 12 13 13 14 14 13 12 11 11 11 11 12 12 12 10 10 12 15 16 16 15 15 15 15 15 14
14 15 15 15 15 16 18 19 20 20 21 23 24 24 24 24 23 22 21 20 19 19 18 17 17 17 17 18 19 20 21 21 20 17 15 15 15 15 15 15 14 13 13 13 13 14 15 15 15 14 13 12 11 10 10 10 11 12 13 14 14 15 15 14 13 11 11 11 11 11 10 10 10 10 12 15 16 15 15 15 15 15 15 15 15
12 12 13 12 12 14 15 17 19 20 21 22 24 24 24 25 24 22 21 19 18 17 17 17 17 17 17 17 18 19 21 21 20 17 16 16 16 17 16 15 14 13 13 13 13 13 13 13 12 12 11 11 11 11 11 11 11 12 13 13 14 14 13 12 11 11 11 12 12 10 9 9 10 12 15 15 15 14 14 15 16 15 15 15 15
11 13 13 12 12 13 14 14 16 18 19 20 22 23 24 23 21 20 17 15 15 15 15 15 16 16 16 16 17 17 17 17 17 16 16 16 16 16 15 13 13 12 12 12 13 12 12 11 11 11 11 11 12 12 12 13 13 13 14 14 14 13 12 11 11 12 13 14 13 12 11 12 13 15 16 15 14 14 15 15 16 16 15 13 14
12 14 14 12 12 13 12 13 14 16 18 18 18 19 20 19 18 17 15 13 13 13 13 13 14 16 16 16 16 16 15 14 14 14 15 15 15 14 13 13 12 12 11 12 13 13 12 12 13 13 12 12 12 13 14 14 14 14 14 14 13 12 12 12 13 13 14 14 14 14 14 15 16 17 16 15 15 15 15 15 16 15 13 12 14
14 15 15 14 12 11 12 14 16 17 19 19 18 17 17 16 15 14 14 12 12 12 11 11 13 16 17 17 16 16 15 14 14 14 15 15 14 13 13 14 14 13 13 13 14 14 15 14 14 12 11 10 10 12 14 15 14 13 13 12 12 12 12 13 14 14 15 15 15 15 16 16 18 18 17 15 15 15 14 15 16 14 12 12 13
15 15 15 15 14 14 14 17 20 21 21 20 18 18 18 17 16 15 15 14 13 12 10 10 12 16 19 19 18 18 17 16 16 15 15 15 14 13 14 15 15 15 15 15 15 15 15 13 11 10 9 8 9 11 13 14 14 13 12 12 12 13 14 15 16 16 15 15 15 15 15 16 17 16 15 14 14 14 14 15 14 12 12 12 11
10 12 14 17 18 18 19 21 22 22 21 19 18 18 19 20 20 19 18 18 17 14 12 10 11 15 18 19 20 20 18 17 16 16 15 14 14 13 14 15 15 16 16 16 15 15 13 11 10 10 8 7 7 9 11 12 13 13 13 13 13 14 16 17 17 16 15 14 13 12 13 13 13 12 12 11 12 13 14 13 12 11 12 10 8
9 12 15 17 18 19 22 23 23 23 21 20 20 20 20 21 22 21 20 19 18 15 13 11 11 11 12 14 15 17 16 16 16 16 15 15 14 13 13 13 14 15 15 15 14 13 12 11 10 9 7 6 6 8 9 10 11 12 12 13 14 15 17 16 14 13 13 14 13 12 11 10 10 10 10 10 11 12 12 11 11 11 10 8 6
9 11 13 16 18 19 19 19 20 21 21 20 20 20 20 19 18 18 18 19 17 15 13 12 11 10 10 11 12 13 13 13 14 14 14 15 15 14 13 13 14 16 15 14 13 12 12 11 10 8 7 6 6 8 9 9 9 9 11 12 14 15 14 11 9 10 11 12 12 11 10 9 9 9 10 10 11 12 11 11 11 11 8 5 6
7 9 12 15 17 15 11 9 12 18 20 19 16 16 17 17 17 17 18 18 17 16 14 13 11 11 11 11 11 11 11 11 12 12 13 14 16 16 16 15 15 16 15 14 13 12 11 11 10 8 7 6 7 8 9 9 8 9 10 11 11 10 7 5 6 7 9 10 9 9 9 8 8 9 9 10 11 12 11 11 11 9 5 4 6
9 10 12 14 14 12 9 8 10 13 15 14 12 12 14 16 18 19 19 18 17 16 15 14 14 13 12 12 12 12 12 11 11 13 15 16 17 18 18 17 16 16 15 14 13 13 12 12 11 9 8 7 7 7 8 8 7 6 6 6 5 5 5 5 5 6 7 7 8 8 8 8 9 9 10 10 11 11 10 10 10 7 5 6 7
8 10 10 9 8 7 6 8 10 12 13 14 15 16 17 18 19 20 20 19 18 18 17 16 15 14 13 12 12 12 12 11 10 12 16 19 18 18 18 18 17 17 17 16 15 14 13 12 11 10 9 8 8 7 5 5 6 5 5 5 6 7 8 9 10 10 9 8 7 7 8 8 9 9 10 11 11 10 9 9 9 8 7 8 8
1 4 6 5 5 7 9 12 14 15 16 16 17 18 18 18 18 19 20 20 19 18 16 15 14 13 12 12 12 12 12 11 11 12 16 19 18 18 17 17 17 17 17 17 15 14 12 11 11 11 11 10 8 7 5 3 4 5 6 6 7 8 9 10 12 12 11 9 8 7 8 8 9 9 10 10 10 9 8 8 9 9 9 10 10
Wind_Direction
222 224 224 224 226 226 227 228 227 227 226 226 226 226 226 225 226 227 227 228 228 228 229 230 229 227 225 226 228 229 230 231 231 231 231 232 232 230 228 228 228 227 224 224 225 228 230 230 231 230 228 228 231 234 236 239 242 246 250 252 251 252 250 250 256 259 256 254 258 260 263 270 275 278 283 286 285 285 284 284 283 283 285 288 289
222 223 223 223 225 226 228 228 228 227 227 226 226 226 226 226 227 227 227 228 229 229 230 231 231 229 228 228 230 231 232 233 234 234 234 233 232 230 228 226 228 229 227 226 226 228 231 232 233 232 231 230 231 232 235 237 240 245 247 245 243 245 248 252 257 261 260 255 257 260 261 268 275 281 289 294 296 296 294 293 292 289 290 292 292
221 222 223 223 225 226 228 229 228 228 227 226 226 225 225 227 227 227 227 228 229 230 231 232 233 232 231 231 232 233 235 235 236 237 237 236 235 233 231 228 227 230 230 230 228 229 231 234 235 234 233 233 231 232 235 236 238 242 244 244 244 245 247 253 258 265 271 271 267 266 269 275 282 289 298 304 307 307 304 303 301 298 298 298 296
219 220 221 223 224 225 227 228 228 228 227 226 226 225 225 227 228 229 229 229 229 231 232 233 234 235 234 234 234 236 237 237 238 239 240 240 238 238 236 234 231 232 234 235 234 233 233 234 236 235 235 235 234 235 237 238 240 244 248 249 248 246 247 253 258 265 272 276 276 280 286 290 292 298 306 310 311 310 308 309 309 308 308 305 301
218 218 220 222 223 224 225 227 227 228 227 226 226 225 225 226 229 230 230 230 231 231 232 233 235 236 236 236 237 238 239 240 241 242 243 243 241 240 241 240 237 236 236 238 240 240 237 235 236 236 236 236 236 238 240 241 243 246 248 249 248 248 248 250 254 259 265 272 279 286 291 294 299 305 309 311 312 309 307 308 309 310 309 306 301
217 217 218 220 222 223 224 225 227 228 228 226 226 225 225 226 229 230 230 230 231 232 233 234 235 237 238 238 239 241 242 242 243 244 245 244 243 243 243 244 242 241 240 239 241 242 240 238 237 237 238 239 239 240 240 241 243 245 247 248 248 248 248 246 249 254 261 269 278 284 289 294 300 306 309 309 309 308 306 306 306 306 304 300 297
216 216 218 219 221 223 223 225 227 228 228 227 226 225 225 227 229 231 231 231 232 233 234 236 237 238 239 240 241 242 243 243 244 244 245 245 246 246 247 248 247 245 244 242 241 242 242 240 239 239 241 243 242 241 240 240 243 247 247 246 249 253 251 248 249 256 262 269 276 283 289 294 300 305 308 308 306 306 306 305 305 304 300 295 293
216 216 217 219 221 223 224 225 226 228 228 228 227 226 226 227 229 231 232 232 232 234 236 238 238 240 241 242 243 244 244 244 244 245 245 245 248 249 250 252 251 248 246 245 244 244 243 242 241 241 243 245 246 244 242 243 247 250 248 246 250 256 255 254 255 260 265 268 274 282 288 295 300 304 306 306 305 306 307 305 304 305 303 298 297
216 216 218 220 223 224 224 225 226 227 228 228 227 226 227 228 230 231 232 233 234 234 237 239 240 241 242 242 243 244 245 245 246 246 246 247 250 252 253 255 254 251 248 245 245 247 246 243 241 241 243 245 247 246 246 248 249 251 251 250 251 255 256 257 259 262 265 267 273 280 286 293 299 303 305 304 305 307 307 306 305 305 304 302 301
217 217 219 223 224 223 224 225 225 226 226 227 228 227 227 228 229 231 232 233 234 234 236 238 239 241 242 242 243 244 246 247 248 248 249 251 255 257 258 258 256 253 250 247 246 248 249 247 242 241 242 244 246 246 245 246 247 249 253 254 254 257 258 260 261 264 266 268 273 279 283 290 298 302 302 302 304 306 305 304 303 303 303 303 302
218 219 221 224 223 223 225 225 225 226 226 227 228 228 228 228 229 231 232 233 234 235 236 237 239 241 242 243 245 246 247 248 248 249 250 254 257 257 259 260 258 255 252 250 249 249 250 250 245 241 241 242 244 245 244 244 245 248 251 255 256 257 259 261 264 267 269 270 275 279 282 288 295 299 298 298 301 302 302 301 301 302 304 305 303
219 221 222 222 221 223 225 225 225 226 226 227 228 228 228 228 228 230 231 233 234 235 236 237 239 240 242 244 246 247 249 249 249 250 251 254 256 255 256 258 259 257 254 251 250 249 250 253 249 243 240 240 242 244 245 244 244 246 250 254 258 259 258 259 261 267 270 272 274 278 281 288 294 297 298 298 298 299 299 298 299 301 302 302 302
219 222 222 221 222 224 225 224 225 226 227 227 227 228 228 228 228 229 231 232 233 234 236 238 239 241 242 244 246 248 249 250 250 250 250 252 254 254 254 256 258 259 257 253 251 249 251 255 253 246 241 241 242 243 245 245 246 252 256 255 257 260 258 258 262 266 268 268 270 275 282 288 294 297 298 297 297 297 296 295 297 299 299 299 300
218 221 222 221 222 224 224 224 225 226 227 227 226 227 227 228 228 229 230 231 232 233 235 237 239 241 243 245 247 249 250 251 251 250 249 251 252 252 253 254 257 259 259 257 253 251 252 255 256 251 244 241 242 245 247 247 251 261 263 257 257 260 259 262 263 258 257 261 267 275 283 290 293 296 296 293 292 292 292 293 295 296 297 299 300
218 220 221 221 222 223 224 225 225 226 226 226 226 226 227 227 228 229 229 230 231 233 235 236 238 240 243 245 246 248 250 251 251 250 250 251 251 250 249 251 255 257 257 257 256 254 254 256 259 256 247 241 242 246 248 249 255 264 265 259 259 261 260 263 263 259 261 269 273 278 286 291 293 293 290 285 285 287 288 290 293 296 298 299 299
218 219 219 221 221 222 224 225 225 224 224 224 225 225 226 227 228 228 228 230 232 234 235 236 238 239 241 243 245 247 249 250 250 251 252 251 248 246 246 247 251 254 255 257 256 255 255 255 258 258 248 240 241 244 246 252 260 265 262 259 261 261 259 262 265 266 273 279 278 283 291 293 293 292 288 284 284 286 286 287 292 297 298 296 294
217 219 219 220 221 222 223 224 223 223 223 223 224 225 226 227 227 228 228 229 231 233 234 235 237 239 240 242 244 245 247 248 249 250 250 248 244 244 245 246 248 251 253 256 257 256 254 254 257 257 246 237 238 241 246 257 264 262 258 259 261 258 259 263 265 270 279 283 285 291 294 293 292 292 291 290 289 288 287 289 293 295 292 289 290
218 220 220 221 221 222 223 223 223 221 221 223 224 225 225 226 227 227 228 229 231 232 234 235 236 238 240 242 243 244 245 247 247 247 246 242 240 242 245 245 246 248 250 253 255 254 253 254 256 254 243 234 235 242 254 266 267 258 255 261 262 259 262 265 268 275 284 290 293 295 293 293 294 294 294 292 290 288 289 291 292 289 284 287 292
220 221 223 223 221 220 221 222 223 222 222 223 224 224 224 225 226 227 228 229 231 232 232 233 235 236 238 240 241 242 244 245 245 244 242 239 237 240 243 244 244 245 247 251 250 250 251 252 251 249 241 233 235 248 262 268 263 252 250 259 265 266 269 271 274 280 285 290 293 294 293 294 294 292 291 287 285 286 288 286 284 282 285 290 294
224 225 225 223 220 219 220 221 222 222 223 223 223 223 223 223 224 225 226 227 229 230 231 231 233 234 235 237 238 239 241 243 244 244 241 237 234 236 240 241 241 242 246 247 246 248 248 246 244 242 235 232 239 254 265 265 257 250 251 258 265 270 273 275 279 284 287 290 292 291 290 290 290 289 287 285 285 284 281 279 279 283 289 293 296
227 226 224 222 220 219 219 220 222 222 222 222 221 220 221 222 223 223 223 224 226 227 227 228 229 231 233 234 234 236 240 243 245 244 240 237 236 237 239 240 240 242 246 245 245 246 245 243 240 235 232 238 250 259 265 263 254 250 255 263 268 271 273 276 281 286 289 289 288 287 288 289 288 287 286 284 283 279 276 278 283 288 293 296 298
227 225 223 221 220 218 217 217 219 219 219 218 218 218 219 220 221 221 221 222 223 222 223 224 225 226 229 231 232 236 241 244 245 244 242 240 238 238 239 238 239 241 241 241 242 244 242 240 238 236 241 253 260 263 265 263 258 257 265 272 272 272 275 279 283 286 286 284 285 287 291 292 291 290 288 288 286 284 285 288 291 294 297 297 296
228 225 222 221 220 218 216 214 214 214 214 214 215 216 216 216 217 218 219 218 218 218 219 220 222 224 226 229 232 237 241 242 242 241 240 237 234 233 233 233 234 234 234 236 240 241 239 238 239 244 252 260 262 263 266 265 262 262 267 268 269 273 278 281 283 283 283 285 288 292 296 296 294 294 294 295 295 295 295 293 292 298 303 301 296
226 224 222 220 218 216 213 210 209 209 210 210 211 212 212 212 212 214 215 215 214 215 217 218 220 223 225 228 232 234 234 234 234 236 237 234 229 227 225 224 225 225 228 232 234 235 237 240 246 250 254 256 258 262 269 269 264 256 256 261 266 271 275 278 281 283 285 288 290 294 298 299 297 298 297 295 296 296 292 289 294 306 312 309 301
223 221 220 218 215 213 209 206 204 205 206 207 207 208 208 208 208 208 210 211 212 213 215 217 219 222 224 226 228 227 226 227 229 233 232 226 219 216 213 214 216 217 221 224 228 234 239 241 243 245 247 252 258 266 272 274 269 258 258 263 266 269 273 277 280 282 285 285 284 289 301 306 300 293 287 287 291 293 291 293 303 312 315 311 304
222 218 217 214 211 208 203 200 199 200 202 203 204 206 206 206 205 205 205 208 211 213 214 216 217 220 221 221 222 223 226 228 229 225 218 211 207 207 205 205 208 211 217 223 228 232 234 233 237 242 247 256 264 268 269 269 271 272 271 268 267 270 273 275 276 279 280 277 278 286 295 296 287 282 282 285 289 292 296 304 311 315 317 314 309
224 220 214 210 206 202 197 194 193 194 195 197 199 201 203 204 203 202 202 205 208 211 213 215 216 217 216 216 217 219 221 222 216 205 199 196 197 198 198 199 202 207 213 219 222 222 224 230 238 245 253 262 266 262 260 264 269 270 268 266 268 269 268 269 273 277 278 275 271 272 277 283 284 283 284 285 288 294 302 310 313 315 316 316 315
216 217 213 206 199 194 191 189 188 188 189 191 193 195 198 200 201 202 205 207 208 209 210 212 212 213 211 210 210 210 209 206 198 191 189 188 189 192 194 196 200 204 207 211 213 216 224 234 241 246 255 263 264 262 264 266 262 256 257 263 265 262 262 266 271 276 279 276 269 269 274 280 283 285 285 286 289 296 304 309 310 313 315 316 317
200 202 202 194 186 183 183 183 183 183 184 186 188 190 192 196 199 201 204 206 207 208 209 208 207 206 206 207 206 203 197 190 185 186 189 192 195 199 201 201 203 205 206 210 214 219 227 235 241 246 253 260 263 262 259 252 243 245 258 264 263 261 262 263 267 272 274 271 269 270 272 275 280 284 285 286 289 295 302 307 310 312 314 316 318
193 187 181 175 172 170 169 171 175 179 180 180 181 181 183 188 192 194 195 196 200 206 208 205 203 202 203 203 201 195 184 176 178 184 190 196 201 204 207 210 210 209 210 213 218 223 231 238 242 245 251 255 252 244 238 236 241 252 260 261 261 264 262 262 266 269 266 265 268 271 273 275 278 279 280 283 288 296 304 309 310 311 313 315 317
191 186 181 171 167 168 168 170 175 177 175 175 176 175 174 176 179 185 189 189 187 186 187 191 195 196 195 192 188 181 172 172 180 187 192 196 199 200 201 204 208 211 214 219 223 228 234 240 242 241 239 236 229 225 228 239 248 250 251 254 258 260 258 258 261 263 262 263 266 267 267 268 269 274 281 288 294 301 307 308 306 306 309 313 314
182 180 183 180 174 178 183 181 178 174 169 169 173 173 172 172 173 177 182 179 172 169 171 176 180 180 180 182 183 179 176 177 183 189 193 196 196 197 198 200 203 208 213 219 227 233 238 242 240 230 220 217 219 224 236 246 251 251 253 258 260 260 259 257 254 254 256 258 260 262 264 267 274 282 289 294 298 302 304 303 301 303 308 310 312
172 173 183 189 187 187 185 177 172 169 167 167 171 174 175 174 171 170 170 168 167 169 172 175 175 174 177 186 191 189 184 184 186 189 193 195 194 194 198 201 205 209 213 218 223 229 234 235 224 209 208 216 225 235 245 252 257 257 257 257 256 256 257 255 251 250 252 255 260 266 270 276 283 286 289 293 296 297 297 296 298 303 308 312 315
170 169 178 184 181 178 175 171 168 167 167 170 174 176 177 174 169 167 166 165 169 174 177 179 181 181 183 188 189 185 182 184 187 189 191 192 190 189 192 196 201 207 212 215 218 221 220 213 203 202 211 225 238 248 254 257 255 250 250 253 252 250 251 249 247 248 251 256 263 269 274 280 283 284 287 289 288 286 287 291 299 307 312 315 316
153 156 166 173 171 168 168 170 171 171 172 175 176 175 172 170 169 168 167 167 174 180 182 183 185 184 184 186 185 179 178 182 187 189 190 190 187 185 187 190 195 199 200 201 204 207 203 195 195 205 219 231 242 251 255 256 255 255 263 271 272 268 264 257 251 252 255 261 269 276 281 284 284 282 282 280 278 281 289 297 306 311 314 313 312
152 156 163 170 171 170 171 173 176 177 176 174 172 169 167 166 168 169 170 176 183 185 184 184 185 183 183 184 183 181 182 187 191 191 190 189 186 185 187 188 188 189 189 188 189 193 195 195 201 214 225 233 241 248 250 254 261 269 278 284 289 290 284 273 268 269 270 275 282 286 288 288 282 276 272 272 279 291 299 305 310 310 308 308 310
153 153 154 158 162 163 163 163 167 172 172 168 166 165 164 163 166 170 175 182 188 190 189 187 186 186 185 184 184 186 189 193 194 191 188 187 185 184 184 184 183 184 185 185 185 189 196 203 211 221 229 235 240 245 249 258 269 278 284 289 292 294 291 286 284 283 282 285 287 287 286 283 279 275 274 280 294 302 304 307 309 305 302 306 312
143 142 140 143 146 146 146 149 155 163 170 171 170 169 166 165 168 174 178 182 187 190 190 189 190 193 193 189 188 191 195 197 196 191 189 190 189 185 182 182 184 185 184 184 186 190 197 206 216 224 231 235 240 246 255 267 277 282 284 284 285 288 292 294 292 288 286 287 283 278 276 276 275 279 286 295 301 304 305 307 305 301 304 311 313
140 137 136 138 140 140 143 148 155 163 172 175 176 176 175 174 177 181 185 188 190 192 192 192 194 197 199 196 194 195 198 200 200 199 199 197 195 191 190 189 188 185 182 183 187 192 197 207 216 222 228 235 244 254 264 272 276 277 277 276 279 285 290 293 291 286 289 293 287 273 267 271 277 286 295 300 302 303 304 305 303 303 309 312 311
149 148 147 148 148 147 149 155 162 169 175 176 177 179 179 180 184 187 189 191 193 194 196 196 196 196 198 200 201 201 203 204 206 208 208 203 198 197 197 195 190 186 185 188 193 196 200 206 211 216 225 240 251 259 267 271 272 272 274 276 280 285 288 289 287 286 293 301 297 281 270 274 282 288 295 299 302 304 307 308 306 305 308 308 308
167 166 163 162 160 158 158 161 168 173 175 175 177 180 181 182 185 187 186 187 191 193 194 194 194 194 196 198 202 208 211 212 213 212 210 206 202 201 200 197 193 191 194 198 201 205 207 208 210 216 228 243 254 262 269 273 275 276 278 280 283 285 283 280 280 283 291 299 301 293 281 275 279 287 295 300 303 306 309 308 306 305 305 304 306
178 177 174 171 171 171 173 174 173 173 175 177 182 185 185 183 180 177 173 174 181 183 181 183 187 190 191 193 198 203 207 210 214 214 208 203 201 200 197 196 196 199 204 207 209 210 209 208 212 221 232 245 260 272 278 279 278 277 277 277 279 279 276 276 281 288 293 295 295 292 284 275 276 284 292 296 298 302 303 303 304 304 303 303 307
184 186 182 179 179 183 188 187 180 176 177 178 182 186 188 186 183 177 174 177 181 178 175 181 186 186 185 187 193 196 196 197 203 207 206 202 199 195 192 192 197 203 206 206 206 205 205 209 216 227 241 257 276 288 287 280 275 272 271 272 272 273 277 284 290 294 295 291 285 281 276 271 273 279 284 287 291 294 296 301 305 304 300 301 310
189 189 190 193 195 195 194 190 185 183 184 185 186 190 193 193 192 189 187 189 190 185 184 191 190 183 180 182 185 187 186 187 190 195 199 199 196 191 189 192 198 201 199 196 196 199 205 214 226 239 254 270 286 293 290 284 280 277 275 275 279 284 290 296 297 297 296 289 279 272 269 268 270 273 275 280 286 291 297 304 306 301 298 304 315
206 201 202 202 199 196 196 195 193 191 193 194 197 201 203 203 202 201 197 194 189 184 182 185 183 180 181 184 185 184 183 184 186 189 190 189 188 187 188 190 193 195 194 194 198 204 213 226 239 247 258 275 291 295 293 293 293 290 287 287 291 296 300 300 296 293 291 284 274 267 266 266 265 266 270 278 285 293 301 304 300 296 301 310 321
242 226 216 209 205 203 199 195 192 193 197 199 201 202 202 201 201 200 199 195 188 181 179 178 173 171 174 179 183 184 182 181 184 188 187 184 184 186 186 185 186 190 195 200 205 213 221 230 239 248 260 277 293 299 304 310 310 303 299 299 299 300 300 296 286 278 274 268 263 261 262 262 262 265 272 281 287 293 299 296 289 293 303 313 323
257 247 232 224 222 215 202 188 184 190 196 202 203 200 197 195 193 192 194 195 190 184 182 181 175 168 165 168 175 180 179 179 185 191 191 188 188 189 189 187 187 192 199 205 211 218 225 232 240 249 257 270 289 307 321 329 325 309 300 298 297 298 296 286 270 265 265 263 262 263 264 263 265 268 274 282 289 292 292 286 285 292 302 310 317
251 250 241 232 226 220 207 194 195 198 201 206 210 205 200 199 192 183 181 185 185 183 184 183 180 178 177 174 175 179 180 183 189 197 199 196 193 193 195 194 194 198 205 212 218 226 234 239 241 244 250 265 290 312 327 334 328 308 298 300 304 306 303 287 276 282 281 275 274 275 270 267 270 273 276 285 291 289 285 283 288 294 294 285 300
225 225 231 236 240 241 239 228 212 201 199 202 199 185 178 179 176 170 169 174 179 182 185 185 182 182 183 181 178 178 180 183 190 201 206 203 197 195 197 200 202 206 213 219 223 227 232 234 235 238 246 263 286 307 328 343 343 321 310 324 350 12 20 14 353 332 314 298 291 286 280 278 279 279 282 288 290 287 285 287 290 288 271 263 282
228 217 218 227 236 231 208 181 166 162 166 170 167 162 163 165 165 164 168 175 179 181 181 179 175 174 176 176 173 171 171 172 177 193 203 202 196 193 197 203 207 212 218 221 222 224 226 229 231 236 245 261 280 295 318 357 14 7 355 5 20 24 20 12 4 356 346 330 313 299 291 288 285 283 286 291 290 287 287 286 279 270 259 262 276
190 201 198 187 168 160 156 153 153 156 158 160 162 164 167 169 168 170 177 182 183 181 176 171 166 165 168 171 170 170 170 168 166 178 192 198 197 197 201 205 208 211 216 221 223 226 227 230 233 239 249 262 275 280 283 324 22 25 17 10 6 3 2 359 355 353 352 346 335 321 307 297 290 287 289 290 286 283 280 273 265 261 262 267 277
Height
1479 1482 1485 1488 1491 1494 1496 1499 1502 1505 1507 1510 1511 1513 1516 1518 1519 1521 1523 1524 1525 1526 1528 1529 1530 1532 1533 1535 1536 1537 1539 1540 1541 1542 1543 1544 1545 1546 1547 1547 1548 1548 1549 1549 1550 1551 1551 1551 1552 1553 1554 1555 1555 1556 1557 1557 1558 1558 1558 1559 1560 1560 1560 1560 1560 1560 1561 1561 1561 1561 1561 1560 1560 1560 1560 1560 1559 1559 1558 1557 1556 1555 1555 1554 1553
1474 1478 1481 1484 1487 1490 1493 1496 1499 1502 1504 1506 1508 1510 1512 1514 1516 1518 1519 1520 1522 1523 1524 1526 1527 1529 1530 1532 1533 1534 1536 1537 1539 1539 1540 1541 1542 1543 1544 1544 1545 1546 1546 1547 1548 1549 1549 1550 1551 1552 1553 1553 1554 1555 1556 1556 1557 1557 1557 1558 1558 1559 1559 1559 1559 1558 1559 1559 1559 1559 1559 1559 1559 1559 1558 1558 1557 1557 1555 1555 1554 1553 1552 1551 1550
1470 1474 1477 1480 1483 1486 1489 1492 1495 1498 1500 1502 1504 1506 1508 1510 1512 1514 1515 1517 1519 1520 1521 1523 1524 1526 1527 1528 1530 1531 1533 1534 1535 1536 1537 1538 1540 1541 1541 1542 1542 1543 1544 1545 1546 1547 1548 1548 1549 1550 1551 1552 1553 1553 1554 1555 1555 1556 1556 1556 1557 1557 1557 1557 1557 1557 1557 1557 1557 1557 1557 1557 1557 1557 1556 1556 1555 1554 1553 1552 1551 1550 1549 1548 1547
1466 1469 1472 1475 1479 1482 1484 1487 1490 1493 1495 1497 1499 1502 1505 1507 1508 1510 1512 1513 1515 1517 1518 1520 1521 1523 1524 1525 1526 1527 1529 1531 1532 1533 1535 1536 1537 1538 1539 1540 1540 1541 1542 1543 1544 1545 1546 1547 1548 1549 1550 1550 1551 1552 1553 1553 1554 1554 1554 1555 1555 1556 1556 1556 1556 1556 1555 1555 1555 1555 1555 1555 1554 1554 1554 1553 1552 1552 1550 1549 1548 1547 1546 1545 1544
1462 1464 1468 1471 1474 1476 1479 1482 1485 1488 1490 1493 1495 1498 1501 1503 1505 1506 1508 1509 1511 1513 1515 1517 1518 1519 1520 1521 1522 1524 1525 1528 1529 1530 1532 1534 1535 1536 1537 1538 1539 1539 1540 1542 1542 1543 1545 1546 1546 1548 1548 1548 1549 1550 1551 1552 1553 1553 1553 1553 1554 1554 1554 1554 1554 1554 1553 1553 1553 1553 1553 1552 1552 1552 1551 1551 1550 1549 1548 1547 1546 1545 1544 1542 1541
1458 1460 1463 1466 1469 1471 1474 1477 1479 1482 1485 1488 1491 1494 1497 1499 1501 1502 1504 1505 1507 1509 1511 1513 1514 1515 1516 1518 1519 1521 1523 1525 1526 1528 1529 1531 1532 1533 1534 1536 1537 1538 1538 1539 1540 1541 1542 1544 1545 1546 1546 1547 1548 1549 1550 1551 1551 1551 1551 1552 1552 1552 1551 1552 1552 1552 1551 1551 1551 1551 1551 1550 1550 1549 1549 1548 1547 1546 1545 1544 1543 1543 1542 1540 1539
1455 1457 1459 1461 1464 1466 1468 1471 1474 1477 1480 1483 1487 1490 1492 1495 1496 1498 1500 1502 1504 1505 1507 1508 1510 1511 1513 1515 1516 1518 1520 1522 1523 1525 1527 1528 1530 1531 1532 1533 1534 1535 1536 1536 1538 1539 1540 1542 1543 1544 1544 1545 1546 1547 1548 1548 1549 1549 1549 1549 1550 1550 1549 1549 1549 1550 1549 1549 1549 1549 1549 1548 1548 1547 1547 1546 1545 1544 1543 1541 1540 1540 1539 1538 1537
1451 1453 1455 1457 1459 1460 1463 1466 1469 1473 1476 1479 1483 1485 1488 1490 1492 1495 1497 1498 1500 1501 1503 1505 1506 1508 1510 1512 1514 1515 1517 1518 1520 1521 1523 1526 1527 1528 1530 1530 1531 1532 1533 1534 1535 1536 1537 1539 1540 1541 1542 1543 1544 1544 1545 1546 1546 1547 1547 1547 1548 1548 1547 1547 1547 1548 1548 1547 1547 1547 1547 1546 1546 1545 1545 1544 1542 1541 1540 1539 1537 1536 1536 1535 1534
1447 1449 1451 1451 1453 1456 1459 1462 1465 1469 1472 1475 1478 1480 1483 1486 1488 1491 1493 1494 1496 1498 1500 1502 1504 1505 1507 1509 1511 1512 1513 1514 1516 1518 1520 1523 1525 1526 1526 1527 1528 1529 1530 1531 1532 1533 1534 1535 1537 1538 1539 1540 1541 1542 1543 1544 1544 1544 1545 1545 1545 1546 1546 1546 1545 1546 1546 1546 1545 1545 1545 1544 1543 1543 1543 1542 1540 1539 1538 1537 1535 1534 1533 1531 1531
1442 1444 1445 1446 1448 1452 1456 1458 1461 1464 1467 1469 1472 1475 1479 1482 1484 1487 1489 1491 1493 1495 1497 1499 1500 1502 1504 1505 1507 1508 1509 1510 1512 1515 1518 1520 1522 1523 1523 1523 1524 1525 1527 1528 1529 1530 1531 1532 1533 1535 1536 1537 1538 1539 1540 1541 1541 1542 1542 1543 1543 1544 1544 1544 1544 1544 1544 1544 1544 1544 1543 1542 1541 1541 1540 1539 1538 1536 1535 1534 1533 1532 1530 1528 1528
1437 1439 1440 1442 1445 1449 1451 1454 1456 1459 1461 1465 1468 1471 1474 1477 1480 1483 1485 1487 1490 1492 1494 1495 1497 1499 1500 1502 1504 1504 1505 1507 1509 1512 1515 1517 1519 1519 1519 1520 1520 1521 1523 1525 1526 1527 1528 1529 1530 1532 1533 1534 1535 1536 1537 1538 1539 1539 1540 1541 1541 1542 1542 1542 1542 1543 1543 1542 1542 1542 1541 1539 1539 1539 1537 1536 1535 1533 1532 1532 1531 1530 1529 1527 1525
1432 1434 1435 1439 1442 1445 1447 1449 1452 1454 1457 1460 1463 1467 1470 1473 1476 1479 1481 1484 1486 1488 1490 1491 1493 1495 1497 1498 1499 1500 1502 1504 1505 1509 1512 1514 1515 1515 1516 1516 1516 1517 1519 1521 1522 1524 1525 1526 1527 1528 1529 1530 1532 1533 1534 1536 1537 1537 1538 1538 1539 1539 1540 1540 1540 1541 1541 1540 1540 1540 1538 1537 1537 1536 1534 1533 1532 1530 1529 1529 1529 1528 1527 1526 1524
1427 1429 1431 1435 1438 1440 1443 1445 1447 1450 1452 1456 1459 1463 1466 1469 1471 1474 1477 1480 1483 1485 1486 1488 1490 1492 1493 1494 1495 1497 1498 1500 1502 1505 1509 1510 1511 1512 1513 1513 1513 1514 1516 1517 1519 1520 1521 1522 1523 1525 1526 1528 1529 1531 1532 1533 1534 1535 1536 1536 1536 1537 1536 1537 1537 1538 1537 1537 1538 1537 1536 1535 1534 1533 1532 1531 1529 1528 1527 1526 1526 1526 1525 1523 1522
1423 1425 1427 1430 1432 1435 1438 1440 1443 1445 1448 1452 1456 1459 1462 1464 1467 1471 1474 1477 1479 1481 1483 1485 1486 1488 1489 1490 1492 1494 1495 1496 1499 1502 1505 1507 1508 1509 1509 1510 1510 1511 1512 1514 1515 1516 1517 1519 1520 1522 1524 1525 1527 1528 1530 1531 1532 1533 1533 1533 1534 1534 1533 1534 1534 1533 1533 1535 1536 1535 1534 1533 1531 1530 1530 1528 1527 1526 1525 1524 1524 1523 1522 1521 1519
1417 1420 1422 1425 1428 1431 1433 1435 1438 1441 1445 1449 1452 1455 1457 1460 1464 1467 1470 1473 1475 1477 1479 1481 1482 1484 1485 1487 1489 1491 1492 1493 1496 1499 1502 1504 1505 1506 1506 1506 1506 1507 1509 1511 1512 1513 1515 1516 1518 1520 1521 1523 1525 1526 1528 1529 1530 1531 1530 1530 1531 1531 1531 1531 1529 1527 1529 1533 1533 1532 1531 1531 1529 1527 1527 1526 1524 1523 1523 1522 1521 1520 1519 1517 1516
1412 1415 1418 1420 1423 1426 1428 1430 1433 1437 1441 1444 1447 1450 1453 1457 1460 1463 1466 1469 1471 1473 1475 1477 1479 1480 1482 1484 1486 1487 1489 1490 1493 1496 1499 1500 1502 1502 1503 1503 1504 1505 1507 1508 1509 1511 1512 1514 1516 1517 1519 1520 1522 1524 1526 1527 1527 1527 1527 1528 1528 1528 1528 1528 1524 1524 1528 1530 1528 1528 1528 1527 1526 1525 1524 1523 1522 1521 1520 1519 1519 1518 1516 1514 1513
1407 1410 1412 1415 1417 1421 1423 1426 1429 1433 1437 1440 1443 1446 1449 1453 1456 1459 1462 1465 1467 1469 1471 1473 1475 1477 1479 1481 1483 1484 1485 1487 1489 1492 1494 1496 1498 1499 1499 1500 1501 1502 1504 1506 1507 1508 1509 1511 1513 1515 1515 1517 1520 1522 1523 1524 1524 1524 1524 1525 1525 1525 1525 1524 1520 1520 1524 1524 1523 1524 1524 1523 1523 1522 1521 1521 1519 1519 1517 1516 1516 1516 1514 1512 1510
1402 1404 1407 1409 1412 1416 1419 1423 1426 1429 1432 1435 1439 1442 1446 1449 1452 1455 1458 1461 1463 1465 1467 1470 1472 1474 1476 1478 1479 1481 1482 1483 1485 1488 1490 1492 1494 1495 1496 1497 1498 1500 1502 1503 1504 1505 1507 1509 1510 1511 1513 1515 1517 1519 1520 1520 1520 1520 1521 1522 1522 1522 1522 1520 1517 1517 1519 1520 1520 1521 1520 1519 1519 1518 1518 1518 1517 1516 1515 1514 1513 1513 1511 1510 1508
1397 1399 1401 1404 1408 1412 1416 1419 1422 1425 1428 1431 1434 1438 1442 1445 1448 1451 1454 1457 1459 1462 1464 1467 1469 1471 1473 1475 1476 1478 1479 1480 1483 1485 1487 1489 1490 1490 1492 1493 1495 1497 1499 1500 1501 1502 1504 1506 1507 1509 1510 1513 1515 1516 1517 1517 1516 1517 1518 1518 1518 1519 1518 1517 1515 1516 1517 1518 1518 1518 1517 1516 1516 1515 1516 1516 1515 1514 1513 1511 1511 1510 1508 1508 1506
1393 1395 1397 1401 1405 1409 1413 1416 1418 1421 1424 1427 1431 1434 1438 1441 1444 1447 1451 1453 1457 1459 1462 1464 1467 1469 1470 1472 1474 1475 1477 1479 1481 1483 1485 1486 1486 1487 1489 1490 1492 1494 1495 1497 1498 1499 1501 1503 1505 1506 1508 1510 1512 1513 1514 1514 1514 1514 1515 1515 1515 1515 1515 1514 1514 1515 1516 1516 1516 1515 1515 1514 1514 1514 1513 1513 1512 1511 1510 1509 1509 1508 1507 1506 1505
1390 1392 1395 1398 1401 1404 1406 1410 1413 1416 1420 1424 1428 1431 1434 1438 1441 1444 1447 1451 1454 1457 1459 1462 1464 1466 1468 1470 1472 1474 1476 1478 1480 1481 1483 1484 1485 1486 1486 1487 1489 1491 1493 1494 1495 1496 1498 1500 1502 1504 1506 1508 1509 1510 1511 1512 1512 1512 1512 1513 1513 1512 1512 1512 1513 1513 1513 1513 1513 1513 1512 1512 1512 1511 1511 1510 1510 1509 1508 1508 1507 1507 1506 1504 1503
1388 1390 1392 1394 1396 1398 1400 1403 1407 1412 1416 1420 1424 1427 1431 1434 1438 1441 1445 1448 1451 1454 1457 1459 1462 1464 1466 1468 1470 1472 1474 1476 1478 1479 1481 1483 1484 1484 1485 1486 1488 1490 1491 1492 1493 1494 1496 1498 1500 1502 1504 1505 1506 1507 1509 1510 1511 1511 1512 1512 1512 1512 1511 1511 1511 1511 1511 1511 1511 1510 1510 1510 1509 1509 1508 1508 1508 1507 1507 1507 1506 1506 1504 1503 1500
1385 1386 1388 1390 1392 1393 1395 1398 1401 1406 1410 1415 1419 1424 1427 1431 1435 1438 1442 1445 1448 1451 1454 1457 1459 1461 1463 1466 1468 1470 1472 1473 1475 1476 1478 1480 1481 1482 1484 1486 1487 1488 1489 1490 1491 1493 1494 1496 1499 1501 1502 1503 1504 1505 1506 1506 1508 1510 1511 1510 1510 1511 1510 1510 1510 1510 1509 1509 1508 1508 1508 1508 1507 1507 1507 1507 1506 1506 1506 1505 1505 1504 1502 1500 1498
1378 1381 1383 1386 1389 1391 1393 1395 1398 1401 1405 1411 1416 1420 1424 1428 1431 1435 1439 1442 1446 1449 1451 1454 1457 1459 1461 1464 1466 1468 1469 1471 1472 1473 1474 1476 1478 1480 1482 1484 1486 1487 1487 1488 1490 1492 1493 1495 1497 1499 1500 1501 1502 1503 1502 1502 1504 1508 1508 1508 1508 1509 1508 1508 1508 1507 1507 1507 1507 1507 1507 1506 1506 1505 1505 1505 1505 1505 1504 1503 1503 1501 1499 1497 1495
1373 1375 1379 1382 1385 1388 1390 1393 1395 1397 1401 1406 1411 1415 1420 1424 1428 1432 1436 1439 1443 1446 1449 1452 1454 1457 1459 1461 1463 1465 1466 1467 1468 1469 1471 1474 1475 1477 1478 1480 1482 1485 1486 1487 1488 1490 1492 1493 1495 1496 1498 1499 1500 1501 1500 1499 1501 1504 1505 1506 1507 1506 1506 1506 1506 1505 1505 1505 1505 1505 1505 1505 1504 1504 1504 1503 1503 1502 1502 1501 1500 1498 1496 1494 1492
1374 1373 1375 1377 1380 1383 1386 1388 1391 1394 1398 1402 1407 1412 1416 1420 1424 1428 1432 1436 1440 1444 1447 1449 1452 1454 1456 1458 1460 1461 1461 1463 1465 1466 1469 1470 1472 1474 1474 1475 1477 1480 1483 1485 1486 1488 1489 1491 1493 1494 1496 1497 1498 1499 1498 1498 1500 1501 1502 1503 1504 1504 1504 1504 1503 1503 1503 1503 1504 1504 1504 1503 1503 1502 1502 1501 1501 1500 1499 1498 1496 1494 1493 1491 1489
1379 1376 1373 1372 1374 1376 1379 1382 1385 1389 1393 1397 1403 1408 1413 1417 1420 1424 1428 1433 1437 1440 1443 1446 1448 1450 1452 1454 1456 1457 1458 1460 1462 1464 1467 1469 1471 1472 1472 1472 1474 1476 1480 1483 1484 1486 1488 1489 1491 1493 1494 1495 1496 1497 1497 1498 1499 1499 1500 1501 1501 1501 1502 1502 1501 1501 1501 1502 1502 1502 1502 1501 1501 1500 1500 1499 1499 1498 1497 1495 1493 1491 1490 1488 1486
1379 1380 1377 1372 1370 1370 1372 1375 1378 1383 1388 1393 1399 1405 1410 1414 1418 1422 1426 1430 1433 1436 1440 1442 1444 1446 1448 1450 1452 1454 1456 1457 1460 1462 1465 1468 1470 1471 1471 1471 1472 1474 1478 1481 1483 1485 1486 1488 1489 1491 1492 1493 1494 1495 1496 1496 1497 1498 1498 1499 1499 1499 1499 1499 1499 1499 1500 1500 1500 1500 1500 1499 1499 1498 1498 1497 1497 1496 1494 1493 1491 1489 1488 1486 1484
1373 1379 1377 1372 1369 1369 1371 1371 1373 1377 1383 1389 1396 1402 1408 1413 1417 1420 1424 1428 1431 1435 1437 1439 1441 1443 1445 1448 1450 1451 1454 1456 1458 1461 1464 1467 1469 1470 1471 1471 1472 1474 1476 1479 1481 1483 1485 1486 1488 1489 1491 1492 1492 1493 1494 1495 1495 1496 1496 1497 1497 1497 1497 1497 1497 1498 1498 1498 1498 1498 1497 1497 1497 1496 1496 1495 1494 1494 1492 1491 1489 1487 1486 1484 1482
1364 1372 1376 1373 1370 1369 1370 1369 1371 1375 1380 1386 1393 1400 1407 1413 1417 1420 1423 1427 1430 1433 1436 1438 1441 1443 1445 1447 1449 1451 1453 1455 1458 1460 1463 1465 1468 1469 1470 1471 1472 1473 1475 1477 1479 1481 1483 1484 1486 1488 1489 1490 1491 1492 1493 1493 1494 1494 1495 1495 1495 1495 1495 1495 1495 1496 1496 1496 1496 1496 1495 1495 1495 1494 1493 1493 1492 1491 1490 1488 1487 1485 1483 1482 1480
1353 1363 1375 1377 1372 1370 1371 1372 1375 1380 1382 1386 1393 1399 1405 1411 1416 1420 1423 1425 1428 1431 1435 1438 1441 1444 1446 1449 1450 1452 1453 1455 1457 1459 1461 1463 1465 1466 1468 1469 1470 1472 1474 1475 1477 1479 1481 1483 1485 1486 1488 1489 1489 1490 1491 1492 1492 1493 1493 1493 1493 1493 1493 1493 1493 1494 1494 1493 1493 1493 1493 1492 1492 1492 1491 1491 1489 1488 1487 1486 1484 1483 1481 1480 1478
1344 1351 1368 1377 1375 1375 1379 1382 1383 1384 1385 1389 1394 1399 1404 1409 1414 1418 1421 1424 1426 1430 1433 1436 1440 1443 1446 1448 1450 1451 1452 1453 1455 1457 1459 1461 1463 1464 1465 1467 1468 1470 1472 1474 1476 1478 1480 1482 1484 1485 1486 1487 1488 1489 1490 1490 1490 1490 1490 1491 1491 1491 1491 1491 1491 1491 1491 1491 1491 1491 1490 1490 1490 1489 1489 1488 1487 1486 1485 1483 1482 1480 1479 1478 1476
1348 1351 1365 1375 1377 1380 1386 1387 1386 1386 1387 1391 1396 1400 1404 1408 1411 1414 1418 1422 1426 1429 1431 1434 1437 1440 1443 1446 1449 1450 1451 1452 1453 1456 1458 1459 1461 1462 1464 1465 1467 1469 1471 1472 1474 1476 1478 1480 1482 1483 1484 1485 1486 1487 1488 1488 1488 1488 1488 1489 1489 1489 1489 1489 1489 1489 1489 1489 1489 1489 1489 1489 1489 1488 1487 1486 1485 1484 1483 1481 1479 1478 1477 1476 1474
1357 1360 1369 1375 1377 1380 1384 1386 1386 1387 1390 1394 1398 1402 1406 1410 1412 1414 1417 1420 1424 1427 1430 1433 1435 1438 1441 1445 1447 1448 1449 1450 1452 1455 1456 1458 1459 1460 1462 1464 1465 1467 1469 1470 1472 1474 1476 1478 1480 1482 1482 1483 1484 1485 1486 1486 1487 1487 1487 1487 1487 1487 1488 1488 1488 1488 1488 1488 1488 1488 1488 1487 1487 1486 1485 1484 1483 1482 1480 1479 1477 1476 1475 1474 1472
1365 1368 1374 1378 1380 1382 1385 1387 1388 1390 1393 1397 1401 1404 1408 1411 1413 1416 1418 1420 1423 1426 1429 1431 1433 1436 1440 1443 1445 1446 1447 1449 1451 1453 1455 1456 1457 1459 1460 1462 1463 1465 1467 1468 1471 1473 1475 1477 1479 1480 1481 1482 1483 1484 1484 1485 1485 1485 1485 1485 1485 1486 1486 1486 1486 1487 1487 1487 1486 1486 1485 1485 1484 1483 1483 1482 1481 1480 1478 1477 1475 1474 1473 1472 1471
1374 1375 1378 1381 1383 1385 1386 1388 1390 1393 1396 1399 1402 1406 1409 1412 1414 1417 1419 1421 1424 1427 1429 1431 1433 1435 1438 1441 1443 1444 1446 1448 1450 1452 1453 1455 1456 1458 1459 1461 1462 1464 1466 1467 1469 1472 1474 1476 1477 1479 1480 1481 1482 1483 1483 1484 1484 1484 1484 1484 1484 1484 1484 1484 1485 1485 1485 1484 1484 1484 1483 1482 1482 1481 1480 1480 1479 1478 1476 1475 1474 1473 1472 1470 1469
1382 1382 1383 1384 1385 1386 1388 1389 1392 1396 1399 1401 1404 1407 1409 1412 1414 1417 1419 1422 1424 1427 1429 1430 1432 1434 1436 1439 1441 1443 1445 1447 1449 1450 1452 1453 1455 1457 1459 1461 1462 1463 1465 1467 1468 1470 1472 1474 1476 1477 1478 1480 1481 1481 1482 1482 1483 1483 1482 1482 1482 1482 1482 1482 1482 1482 1482 1482 1482 1482 1481 1480 1479 1479 1478 1478 1477 1476 1475 1474 1472 1471 1470 1469 1467
1387 1387 1387 1387 1387 1388 1389 1391 1394 1398 1401 1403 1405 1407 1408 1410 1413 1416 1419 1422 1424 1426 1427 1428 1430 1432 1434 1436 1439 1441 1443 1446 1447 1448 1450 1452 1454 1456 1458 1460 1461 1462 1464 1466 1468 1470 1471 1473 1474 1476 1477 1478 1479 1480 1480 1480 1480 1480 1480 1481 1480 1480 1480 1480 1480 1480 1480 1480 1480 1480 1479 1478 1477 1477 1476 1476 1475 1474 1473 1472 1471 1469 1468 1467 1466
1388 1389 1389 1389 1390 1391 1392 1394 1397 1399 1402 1404 1406 1408 1409 1411 1413 1415 1418 1421 1423 1424 1425 1427 1429 1431 1433 1435 1437 1439 1441 1444 1445 1447 1449 1451 1453 1455 1457 1458 1460 1461 1463 1465 1467 1468 1470 1472 1473 1474 1476 1477 1477 1478 1478 1478 1478 1478 1479 1479 1479 1479 1479 1479 1478 1478 1478 1478 1478 1477 1477 1476 1476 1475 1474 1474 1473 1472 1471 1470 1469 1468 1466 1465 1464
1390 1391 1392 1393 1394 1395 1396 1398 1399 1401 1403 1404 1406 1408 1409 1411 1412 1415 1417 1419 1421 1422 1423 1425 1427 1429 1431 1433 1436 1438 1440 1442 1444 1446 1448 1450 1452 1454 1455 1457 1458 1460 1461 1463 1465 1467 1468 1470 1472 1473 1474 1475 1476 1476 1476 1476 1476 1476 1477 1477 1477 1478 1477 1477 1477 1477 1476 1476 1476 1475 1475 1474 1474 1473 1473 1472 1471 1470 1469 1468 1467 1466 1465 1464 1462
1392 1393 1394 1395 1396 1398 1399 1400 1401 1402 1404 1406 1408 1409 1409 1409 1412 1414 1417 1418 1419 1421 1422 1424 1426 1428 1430 1432 1435 1437 1439 1441 1443 1445 1447 1449 1451 1452 1454 1455 1456 1458 1460 1462 1463 1465 1467 1469 1470 1472 1473 1474 1474 1475 1475 1475 1474 1474 1475 1475 1476 1475 1475 1475 1475 1475 1474 1474 1473 1473 1473 1473 1472 1471 1471 1470 1469 1469 1468 1466 1465 1464 1463 1462 1461
1394 1395 1396 1397 1398 1400 1401 1402 1402 1403 1404 1407 1410 1411 1410 1410 1412 1414 1416 1417 1419 1420 1422 1424 1426 1427 1429 1431 1433 1435 1438 1440 1442 1444 1446 1448 1450 1451 1452 1453 1455 1456 1458 1460 1462 1464 1465 1467 1468 1470 1471 1473 1473 1473 1473 1473 1473 1473 1473 1473 1473 1473 1473 1473 1473 1472 1472 1472 1471 1471 1470 1470 1470 1469 1469 1468 1467 1466 1466 1464 1464 1463 1462 1461 1460
1395 1396 1397 1398 1399 1400 1401 1403 1404 1404 1405 1407 1409 1410 1410 1411 1412 1414 1415 1417 1418 1420 1423 1424 1425 1426 1428 1430 1432 1434 1436 1438 1440 1443 1445 1447 1449 1450 1451 1452 1453 1455 1457 1459 1460 1462 1464 1465 1467 1469 1470 1471 1472 1472 1471 1471 1471 1471 1471 1471 1471 1471 1471 1470 1470 1470 1469 1469 1469 1468 1468 1468 1467 1467 1467 1466 1465 1464 1464 1463 1462 1461 1460 1459 1458
1395 1397 1398 1399 1399 1399 1401 1402 1403 1404 1405 1406 1408 1408 1408 1409 1411 1412 1414 1415 1417 1420 1422 1424 1425 1426 1427 1429 1431 1433 1435 1437 1439 1442 1444 1446 1447 1448 1450 1451 1452 1454 1456 1457 1459 1461 1462 1464 1465 1467 1468 1469 1470 1470 1469 1469 1469 1469 1469 1469 1469 1469 1468 1468 1468 1467 1467 1466 1466 1465 1465 1465 1465 1465 1464 1464 1463 1462 1462 1461 1460 1459 1458 1458 1457
1396 1398 1399 1399 1398 1399 1399 1400 1401 1402 1403 1404 1405 1407 1407 1408 1410 1412 1413 1415 1416 1419 1422 1423 1425 1426 1427 1429 1430 1432 1434 1437 1439 1441 1443 1445 1446 1447 1448 1450 1451 1452 1454 1456 1457 1459 1460 1462 1463 1465 1466 1467 1467 1467 1468 1468 1467 1467 1467 1467 1467 1467 1466 1465 1465 1464 1464 1463 1463 1463 1463 1463 1463 1463 1462 1462 1461 1461 1460 1459 1459 1458 1457 1456 1455
1395 1397 1398 1398 1397 1397 1397 1397 1398 1400 1401 1402 1403 1405 1406 1408 1410 1412 1415 1416 1417 1418 1421 1423 1425 1427 1428 1430 1431 1433 1435 1437 1439 1441 1442 1444 1445 1446 1447 1448 1450 1451 1453 1455 1456 1457 1459 1460 1462 1463 1464 1464 1465 1465 1466 1466 1465 1465 1465 1465 1465 1464 1463 1463 1462 1461 1461 1461 1460 1461 1461 1461 1461 1461 1460 1460 1459 1459 1458 1457 1457 1456 1455 1455 1454
1394 1395 1396 1397 1396 1395 1395 1395 1397 1399 1401 1401 1401 1402 1405 1407 1409 1411 1414 1416 1417 1419 1421 1422 1425 1427 1428 1430 1432 1433 1435 1437 1439 1440 1442 1443 1444 1445 1446 1447 1449 1450 1452 1453 1455 1456 1457 1458 1460 1461 1461 1462 1463 1463 1464 1463 1463 1464 1463 1463 1463 1462 1461 1460 1460 1459 1459 1459 1459 1459 1459 1459 1459 1459 1459 1458 1458 1457 1456 1456 1455 1455 1454 1453 1453
1394 1395 1395 1395 1395 1394 1395 1397 1399 1399 1400 1401 1401 1402 1403 1406 1408 1410 1412 1415 1417 1419 1421 1423 1425 1427 1428 1430 1432 1433 1435 1437 1438 1440 1441 1442 1443 1444 1445 1446 1447 1449 1450 1451 1453 1454 1455 1457 1458 1458 1459 1460 1461 1462 1462 1462 1462 1462 1462 1462 1461 1460 1459 1459 1458 1458 1458 1458 1458 1458 1458 1458 1458 1458 1457 1456 1456 1455 1454 1454 1454 1453 1453 1452 1451
1394 1395 1395 1395 1395 1395 1396 1397 1399 1398 1399 1401 1402 1403 1404 1406 1408 1410 1412 1414 1417 1419 1421 1423 1425 1427 1428 1430 1431 1433 1435 1436 1437 1438 1439 1441 1442 1443 1444 1445 1446 1447 1448 1450 1451 1452 1454 1455 1456 1456 1458 1459 1460 1460 1461 1461 1461 1461 1460 1460 1459 1459 1458 1458 1458 1458 1457 1457 1456 1456 1456 1456 1456 1456 1455 1455 1454 1453 1453 1452 1452 1452 1451 1450 1450
1395 1395 1395 1395 1395 1396 1396 1397 1398 1398 1399 1401 1403 1404 1405 1407 1409 1411 1413 1415 1417 1419 1421 1423 1425 1427 1428 1430 1431 1433 1434 1436 1437 1438 1438 1440 1441 1442 1443 1444 1445 1446 1447 1448 1450 1451 1452 1453 1454 1455 1456 1457 1458 1459 1459 1459 1459 1459 1459 1459 1458 1458 1458 1457 1457 1457 1456 1456 1455 1455 1455 1455 1454 1454 1454 1453 1452 1451 1451 1451 1451 1450 1449 1449 1448
1396 1396 1395 1396 1397 1399 1399 1399 1399 1400 1401 1402 1404 1405 1406 1408 1409 1412 1414 1415 1417 1418 1420 1422 1424 1426 1428 1429 1431 1433 1434 1435 1436 1437 1438 1439 1440 1441 1441 1442 1444 1445 1446 1447 1448 1449 1450 1450 1451 1452 1454 1455 1456 1457 1458 1458 1458 1458 1458 1458 1458 1457 1457 1457 1456 1456 1455 1455 1454 1454 1453 1453 1453 1452 1452 1451 1450 1450 1449 1449 1449 1448 1448 1447 1447